GW3482 Weather Reports


time (UTC)temp
C
wind
direction
speed
KPH
gust
KPH
rain 1hr
cm
rain 24hr
cm
rain mn
cm
humidity
%
barometer
mb
20260507161815 -17 316 1.6 4.8 0.00 0.00 0.00 1018.2
20260507161311 -17 312 0.0 1.6 0.00 0.00 0.00 1018.0
20260507160808 -17 241 0.0 3.2 0.00 0.00 0.00 1018.0
20260507160304 -17 259 3.2 4.8 0.00 0.00 0.00 1018.2
20260507155800 -17 252 1.6 1.6 0.00 0.00 0.00 1018.1
20260507155256 -17 208 0.0 4.8 0.00 0.00 0.00 1018.2
20260507154753 -17 193 0.0 4.8 0.00 0.00 0.00 1018.2
20260507154250 -17 330 3.2 3.2 0.00 0.00 0.00 1018.1
20260507153747 -17 231 1.6 3.2 0.00 0.00 0.00 1018.3
20260507153243 -17 244 0.0 3.2 0.00 0.00 0.00 1018.1
20260507152740 -17 286 3.2 6.4 0.00 0.00 0.00 1017.9
20260507152236 -17 300 0.0 1.6 0.00 0.00 0.00 1018.1
20260507151732 -17 219 0.0 3.2 0.00 0.00 0.00 1017.9
20260507151229 -17 311 3.2 3.2 0.00 0.00 0.00 1018.2
20260507150726 -17 200 0.0 3.2 0.00 0.00 0.00 1018.0
20260507150222 -17 237 0.0 3.2 0.00 0.00 0.00 1018.0
20260507145718 -17 232 0.0 0.0 0.00 0.00 0.00 1018.0
20260507145215 -17 324 1.6 4.8 0.00 0.00 0.00 1017.9
20260507144712 -17 231 1.6 1.6 0.00 0.00 0.00 1017.9
20260507144210 -17 251 0.0 0.0 0.00 0.00 0.00 1017.8
20260507143706 -17 303 1.6 3.2 0.00 0.00 0.00 1018.0
20260507143203 -17 251 1.6 3.2 0.00 0.00 0.00 1017.8
20260507142659 -17 247 0.0 0.0 0.00 0.00 0.00 1017.7
20260507142156 -17 247 1.6 1.6 0.00 0.00 0.00 1017.6
20260507141652 -17 207 0.0 0.0 0.00 0.00 0.00 1017.7
20260507141149 -17 218 1.6 1.6 0.00 0.00 0.00 1017.8
20260507140645 -17 248 0.0 1.6 0.00 0.00 0.00 1017.6
20260507140143 -17 248 0.0 1.6 0.00 0.00 0.00 1017.6
20260507135640 -17 248 1.6 1.6 0.00 0.00 0.00 1017.5
20260507135137 -17 245 0.0 1.6 0.00 0.00 0.00 1017.4
20260507134633 -17 245 0.0 0.0 0.00 0.00 0.00 1017.5
20260507134130 -17 245 0.0 0.0 0.00 0.00 0.00 1017.6
20260507133626 -17 244 1.6 3.2 0.00 0.00 0.00 1017.4
20260507133123 -17 244 0.0 1.6 0.00 0.00 0.00 1017.4
20260507132620 -17 243 0.0 0.0 0.00 0.00 0.00 1017.4
20260507132116 -17 245 0.0 1.6 0.00 0.00 0.00 1017.3
20260507131613 -17 241 0.0 0.0 0.00 0.00 0.00 1017.4
20260507131111 -17 242 0.0 1.6 0.00 0.00 0.00 1017.5
20260507130607 -17 240 1.6 1.6 0.00 0.00 0.00 1017.4
20260507130106 -17 37 1.6 3.2 0.00 0.00 0.00 1017.4
20260507125604 -17 239 0.0 1.6 0.00 0.00 0.00 1017.3
20260507125101 -17 231 0.0 0.0 0.00 0.00 0.00 1017.4
20260507124557 -17 228 0.0 1.6 0.00 0.00 0.00 1017.3
20260507124055 -17 222 0.0 1.6 0.00 0.00 0.00 1017.4
20260507123553 -17 237 1.6 3.2 0.00 0.00 0.00 1017.2
20260507123050 -17 230 0.0 1.6 0.00 0.00 0.00 1017.2
20260507122545 -17 235 0.0 3.2 0.00 0.00 0.00 1017.0
20260507122041 -17 233 0.0 1.6 0.00 0.00 0.00 1017.2
20260507121537 -17 233 0.0 0.0 0.00 0.00 0.00 1017.1
20260507121033 -17 233 0.0 0.0 0.00 0.00 0.00 1017.2
20260507120529 -17 236 0.0 1.6 0.00 0.00 0.00 1017.1
20260507120026 -17 236 0.0 1.6 0.00 0.00 0.00 1017.3
20260507115522 -17 233 1.6 3.2 0.00 0.00 0.00 1017.1
20260507115018 -17 227 1.6 1.6 0.00 0.00 0.00 1017.0
20260507114515 -17 224 0.0 0.0 0.00 0.00 0.00 1017.2
20260507114012 -17 224 0.0 1.6 0.00 0.00 0.00 1017.1
20260507113509 -17 224 0.0 1.6 0.00 0.00 0.00 1017.0
20260507113006 -17 222 0.0 1.6 0.00 0.00 0.00 1017.1
20260507112504 -17 234 3.2 3.2 0.00 0.00 0.00 1017.0
20260507112000 -17 210 0.0 1.6 0.00 0.00 0.00 1017.1
20260507111459 -17 208 0.0 0.0 0.00 0.00 0.00 1017.2
20260507110954 -17 208 0.0 0.0 0.00 0.00 0.00 1017.3
20260507110450 -17 209 1.6 1.6 0.00 0.00 0.00 1017.2
20260507105947 -17 195 0.0 1.6 0.00 0.00 0.00 1017.3
20260507105444 -17 195 0.0 0.0 0.00 0.00 0.00 1017.2
20260507104940 -17 195 0.0 0.0 0.00 0.00 0.00 1017.2
20260507104438 -17 194 0.0 0.0 0.00 0.00 0.00 1017.5
20260507103933 -17 194 0.0 0.0 0.00 0.00 0.00 1017.3
20260507103430 -17 194 0.0 1.6 0.00 0.00 0.00 1017.3
20260507102926 -17 167 0.0 0.0 0.00 0.00 0.00 1017.4
20260507102423 -17 167 0.0 0.0 0.00 0.00 0.00 1017.6
20260507101919 -17 167 0.0 0.0 0.00 0.00 0.00 1017.5
20260507101414 -17 167 0.0 0.0 0.00 0.00 0.00 1017.6
20260507100911 -17 152 0.0 0.0 0.00 0.00 0.00 1017.5
20260507100409 -17 127 0.0 1.6 0.00 0.00 0.00 1017.6
20260507095907 -17 160 0.0 0.0 0.00 0.00 0.00 1017.6
20260507095403 -17 160 0.0 0.0 0.00 0.00 0.00 1017.7
20260507094901 -17 160 0.0 0.0 0.00 0.00 0.00 1017.6
20260507094357 -17 160 0.0 0.0 0.00 0.00 0.00 1017.5
20260507093854 -17 160 0.0 0.0 0.00 0.00 0.00 1017.6
20260507093352 -17 160 0.0 0.0 0.00 0.00 0.00 1017.7
20260507092850 -17 160 0.0 0.0 0.00 0.00 0.00 1017.6
20260507092346 -17 160 0.0 0.0 0.00 0.00 0.00 1017.8
20260507091843 -17 171 0.0 0.0 0.00 0.00 0.00 1017.7
20260507091339 -17 204 0.0 0.0 0.00 0.00 0.00 1017.7
20260507090835 -17 190 0.0 0.0 0.00 0.00 0.00 1017.9
20260507090331 -17 155 0.0 0.0 0.00 0.00 0.00 1018.1
20260507085829 -17 155 0.0 0.0 0.00 0.00 0.00 1018.1
20260507085325 -17 155 0.0 0.0 0.00 0.00 0.00 1018.2
20260507084823 -17 154 0.0 0.0 0.00 0.00 0.00 1018.2
20260507084319 -17 154 0.0 0.0 0.00 0.00 0.00 1018.2
20260507083817 -17 154 0.0 0.0 0.00 0.00 0.00 1018.2
20260507083313 -17 154 0.0 0.0 0.00 0.00 0.00 1018.3
20260507082809 -17 154 0.0 0.0 0.00 0.00 0.00 1018.3
20260507082306 -17 154 0.0 0.0 0.00 0.00 0.00 1018.4
20260507081802 -17 154 0.0 0.0 0.00 0.00 0.00 1018.3
20260507081258 -17 154 0.0 0.0 0.00 0.00 0.00 1018.4
20260507080755 -17 154 0.0 0.0 0.00 0.00 0.00 1018.5
20260507080251 -17 154 0.0 0.0 0.00 0.00 0.00 1018.5
20260507075746 -17 154 0.0 0.0 0.00 0.00 0.00 1018.3
20260507075243 -17 167 0.0 0.0 0.00 0.00 0.00 1018.5
20260507074739 -17 134 0.0 0.0 0.00 0.00 0.00 1018.5
20260507074237 -17 244 0.0 1.6 0.00 0.00 0.00 1018.4
20260507073734 -17 243 0.0 1.6 0.00 0.00 0.00 1018.6
20260507073230 -17 245 0.0 3.2 0.00 0.00 0.00 1018.6
20260507072728 -17 242 0.0 0.0 0.00 0.00 0.00 1018.5
20260507072225 -17 242 0.0 0.0 0.00 0.00 0.00 1018.7
20260507071723 -17 242 0.0 0.0 0.00 0.00 0.00 1018.5
20260507071219 -17 242 0.0 0.0 0.00 0.00 0.00 1018.8
20260507070716 -17 242 0.0 0.0 0.00 0.00 0.00 1018.6
20260507070213 -17 242 0.0 0.0 0.00 0.00 0.00 1018.5
20260507065709 -17 242 0.0 0.0 0.00 0.00 0.00 1018.6
20260507065206 -17 242 0.0 0.0 0.00 0.00 0.00 1018.7
20260507064704 -17 242 0.0 0.0 0.00 0.00 0.00 1018.8
20260507064203 -17 242 0.0 0.0 0.00 0.00 0.00 1018.8
20260507063659 -17 242 0.0 0.0 0.00 0.00 0.00 1018.8
20260507063156 -17 242 0.0 0.0 0.00 0.00 0.00 1018.9
20260507062653 -17 242 0.0 0.0 0.00 0.00 0.00 1018.8
20260507062151 -17 263 0.0 1.6 0.00 0.00 0.00 1018.8
20260507061648 -17 247 0.0 1.6 0.00 0.00 0.00 1018.8
20260507061146 -17 4 1.6 3.2 0.00 0.00 0.00 1018.7
20260507060644 -17 215 0.0 1.6 0.00 0.00 0.00 1018.8
20260507060140 -17 231 0.0 3.2 0.00 0.00 0.00 1018.8
20260507055635 -17 239 0.0 1.6 0.00 0.00 0.00 1018.8
20260507055132 -17 223 0.0 1.6 0.00 0.00 0.00 1018.9
20260507054628 -17 203 1.6 1.6 0.00 0.00 0.00 1018.9
20260507054125 -17 226 1.6 1.6 0.00 0.00 0.00 1018.6
20260507053623 -17 246 1.6 3.2 0.00 0.00 0.00 1018.7
20260507053121 -17 298 1.6 3.2 0.00 0.00 0.00 1018.9
20260507052619 -17 246 1.6 3.2 0.00 0.00 0.00 1018.8
20260507052115 -17 247 1.6 4.8 0.00 0.00 0.00 1018.7
20260507051613 -17 257 1.6 3.2 0.00 0.00 0.00 1018.8
20260507051109 -17 241 3.2 4.8 0.00 0.00 0.00 1018.8
20260507050606 -17 257 1.6 3.2 0.00 0.00 0.00 1018.7
20260507050103 -17 328 3.2 3.2 0.00 0.00 0.00 1018.8
20260507045559 -17 241 1.6 3.2 0.00 0.00 0.00 1018.8
20260507045057 -17 233 0.0 3.2 0.00 0.00 0.00 1018.7
20260507044553 -17 237 1.6 3.2 0.00 0.00 0.00 1018.7
20260507044050 -17 237 0.0 1.6 0.00 0.00 0.00 1018.6
20260507043546 -17 236 0.0 1.6 0.00 0.00 0.00 1018.6
20260507043044 -17 233 0.0 3.2 0.00 0.00 0.00 1018.7
20260507042539 -17 229 0.0 4.8 0.00 0.00 0.00 1018.5
20260507042035 -17 236 1.6 3.2 0.00 0.00 0.00 1018.5
20260507041532 -17 284 3.2 6.4 0.00 0.00 0.00 1018.6
20260507041029 -17 245 1.6 3.2 0.00 0.00 0.00 1018.4
20260507040525 -17 233 1.6 3.2 0.00 0.00 0.00 1018.6
20260507040021 -17 238 1.6 4.8 0.00 0.00 0.00 1018.4
20260507035518 -17 249 1.6 4.8 0.00 0.00 0.00 1018.5
20260507035014 -17 289 3.2 6.4 0.00 0.00 0.00 1018.3
20260507034511 -17 242 3.2 6.4 0.00 0.00 0.00 1018.2
20260507034009 -17 264 1.6 6.4 0.00 0.00 0.00 1018.1
20260507033507 -17 239 3.2 4.8 0.00 0.00 0.00 1018.2
20260507033004 -17 257 6.4 6.4 0.00 0.00 0.00 1018.4
20260507032501 -17 306 4.8 9.7 0.00 0.00 0.00 1018.2
20260507031957 -17 319 1.6 6.4 0.00 0.00 0.00 1018.2
20260507031453 -17 290 1.6 6.4 0.00 0.00 0.00 1018.0
20260507030950 -17 340 1.6 3.2 0.00 0.00 0.00 1018.0
20260507030447 -17 291 3.2 6.4 0.00 0.00 0.00 1018.1
20260507025944 -17 220 1.6 4.8 0.00 0.00 0.00 1018.0
20260507025441 -17 236 4.8 6.4 0.00 0.00 0.00 1017.9
20260507024939 -17 248 1.6 4.8 0.00 0.00 0.00 1018.0
20260507024437 -17 234 3.2 9.7 0.00 0.00 0.00 1017.7
20260507023932 -17 248 3.2 6.4 0.00 0.00 0.00 1017.9
20260507023429 -17 305 4.8 6.4 0.00 0.00 0.00 1017.9
20260507022926 -17 298 4.8 4.8 0.00 0.00 0.00 1017.7
20260507022424 -17 248 3.2 14.5 0.00 0.00 0.00 1017.9
20260507021919 -17 242 1.6 12.9 0.00 0.00 0.00 1017.8
20260507021414 -17 247 4.8 4.8 0.00 0.00 0.00 1017.9
20260507020912 -17 254 1.6 12.9 0.00 0.00 0.00 1017.8
20260507020408 -17 302 9.7 12.9 0.00 0.00 0.00 1017.8
20260507015906 -17 349 6.4 11.3 0.00 0.00 0.00 1017.5
20260507015404 -17 244 4.8 4.8 0.00 0.00 0.00 1017.7
20260507014901 -17 274 4.8 6.4 0.00 0.00 0.00 1017.6
20260507014356 -17 274 6.4 12.9 0.00 0.00 0.00 1017.7
20260507013853 -17 260 3.2 9.7 0.00 0.00 0.00 1017.8
20260507013350 -17 288 6.4 11.3 0.00 0.00 0.00 1017.7
20260507012848 -17 226 8.0 12.9 0.00 0.00 0.00 1017.6
20260507012343 -17 245 4.8 12.9 0.00 0.00 0.00 1017.7
20260507011840 -17 293 3.2 14.5 0.00 0.00 0.00 1017.7
20260507011337 -17 282 1.6 6.4 0.00 0.00 0.00 1017.5
20260507010832 -17 277 9.7 11.3 0.00 0.00 0.00 1017.6
20260507010328 -17 282 6.4 11.3 0.00 0.00 0.00 1017.6
20260507005825 -17 267 1.6 16.1 0.00 0.00 0.00 1017.6
20260507005322 -17 265 4.8 9.7 0.00 0.00 0.00 1017.9
20260507004818 -17 265 8.0 16.1 0.00 0.00 0.00 1017.5
20260507004315 -17 278 9.7 14.5 0.00 0.00 0.00 1017.5
20260507003812 -17 285 6.4 12.9 0.00 0.00 0.00 1017.6
20260507003302 -17 264 3.2 12.9 0.00 0.00 0.00 1017.6
20260507002757 -17 327 6.4 14.5 0.00 0.00 0.00 1017.4
20260507002254 -17 276 8.0 11.3 0.00 0.00 0.00 1017.4
20260507001751 -17 269 6.4 12.9 0.00 0.00 0.00 1017.4
20260507001249 -17 277 6.4 9.7 0.00 0.00 0.00 1017.3
20260507000744 -17 327 8.0 14.5 0.00 0.00 0.00 1017.3
20260507000240 -17 242 4.8 16.1 0.00 0.00 0.00 1017.5
20260506235737 -17 294 4.8 12.9 0.00 0.00 0.00 1017.4
20260506235232 -17 282 8.0 16.1 0.00 0.00 0.00 1017.3
20260506234730 -17 303 8.0 17.7 0.00 0.00 0.00 1017.3
20260506234227 -17 278 4.8 12.9 0.00 0.00 0.00 1017.4
20260506233725 -17 263 9.7 12.9 0.00 0.00 0.00 1017.5
20260506233221 -17 263 14.5 17.7 0.00 0.00 0.00 1017.3
20260506232718 -17 236 6.4 11.3 0.00 0.00 0.00 1017.5
20260506232212 -17 262 12.9 17.7 0.00 0.00 0.00 1017.4
20260506231710 -17 287 4.8 16.1 0.00 0.00 0.00 1017.6
20260506231209 -17 306 6.4 12.9 0.00 0.00 0.00 1017.5
20260506230704 -17 308 6.4 14.5 0.00 0.00 0.00 1017.6
20260506230202 -17 279 11.3 14.5 0.00 0.00 0.00 1017.5
20260506225658 -17 258 9.7 12.9 0.00 0.00 0.00 1017.5
20260506225155 -17 261 6.4 14.5 0.00 0.00 0.00 1017.5
20260506224651 -17 328 3.2 12.9 0.00 0.00 0.00 1017.8
20260506224148 -17 318 9.7 14.5 0.00 0.00 0.00 1017.8
20260506223645 -17 261 6.4 17.7 0.00 0.00 0.00 1017.8
20260506223140 -17 276 4.8 16.1 0.00 0.00 0.00 1017.8
20260506222638 -17 350 3.2 16.1 0.00 0.00 0.00 1017.9
20260506222134 -17 247 8.0 20.9 0.00 0.00 0.00 1017.9
20260506221632 -17 274 9.7 14.5 0.00 0.00 0.00 1017.9
20260506221130 -17 280 9.7 17.7 0.00 0.00 0.00 1018.0
20260506220626 -17 235 6.4 14.5 0.00 0.00 0.00 1017.9
20260506220121 -17 244 4.8 11.3 0.00 0.00 0.00 1018.0
20260506215618 -17 324 6.4 12.9 0.00 0.00 0.00 1018.1
20260506215113 -17 251 4.8 17.7 0.00 0.00 0.00 1018.1
20260506214611 -17 315 6.4 11.3 0.00 0.00 0.00 1018.4
20260506214108 -17 245 4.8 11.3 0.00 0.00 0.00 1018.2
20260506213606 -17 264 8.0 11.3 0.00 0.00 0.00 1018.1
20260506213103 -17 274 6.4 20.9 0.00 0.00 0.00 1018.3
20260506212559 -17 240 4.8 12.9 0.00 0.00 0.00 1018.2
20260506212049 -17 302 8.0 14.5 0.00 0.00 0.00 1018.1
20260506211545 -17 327 3.2 14.5 0.00 0.00 0.00 1018.4
20260506211042 -17 289 3.2 9.7 0.00 0.00 0.00 1018.3
20260506210539 -17 277 9.7 14.5 0.00 0.00 0.00 1018.2
20260506210035 -17 299 8.0 14.5 0.00 0.00 0.00 1018.2
20260506205532 -17 244 8.0 14.5 0.00 0.00 0.00 1018.2
20260506205027 -17 269 9.7 17.7 0.00 0.00 0.00 1018.3
20260506204526 -17 318 9.7 22.5 0.00 0.00 0.00 1018.1
20260506204022 -17 321 6.4 16.1 0.00 0.00 0.00 1018.2
20260506203521 -17 280 6.4 14.5 0.00 0.00 0.00 1018.2
20260506203017 -17 181 11.3 17.7 0.00 0.00 0.00 1018.3
20260506202514 -17 348 9.7 22.5 0.00 0.00 0.00 1018.3
20260506202010 -17 272 8.0 16.1 0.00 0.00 0.00 1018.3
20260506201508 -17 233 9.7 20.9 0.00 0.00 0.00 1018.6
20260506201004 -17 280 6.4 11.3 0.00 0.00 0.00 1018.5
20260506200501 -17 239 9.7 14.5 0.00 0.00 0.00 1018.3
20260506195957 -17 289 9.7 22.5 0.00 0.00 0.00 1018.5
20260506195455 -17 320 6.4 11.3 0.00 0.00 0.00 1018.7
20260506194950 -17 303 6.4 14.5 0.00 0.00 0.00 1018.7
20260506194448 -17 262 11.3 14.5 0.00 0.00 0.00 1018.9
20260506193945 -17 309 6.4 12.9 0.00 0.00 0.00 1019.0
20260506193442 -17 299 6.4 14.5 0.00 0.00 0.00 1018.9
20260506192938 -17 257 9.7 12.9 0.00 0.00 0.00 1018.8
20260506192436 -17 327 4.8 14.5 0.00 0.00 0.00 1018.8
20260506191932 -17 244 3.2 12.9 0.00 0.00 0.00 1018.9
20260506191429 -17 267 9.7 14.5 0.00 0.00 0.00 1018.8
20260506190925 -17 193 4.8 14.5 0.00 0.00 0.00 1019.1
20260506190422 -17 223 1.6 12.9 0.00 0.00 0.00 1018.9
20260506185919 -17 237 6.4 6.4 0.00 0.00 0.00 1018.9
20260506185416 -17 231 8.0 12.9 0.00 0.00 0.00 1019.1
20260506184913 -17 300 6.4 11.3 0.00 0.00 0.00 1019.2
20260506184410 -17 346 3.2 9.7 0.00 0.00 0.00 1019.2
20260506183908 -17 285 3.2 11.3 0.00 0.00 0.00 1019.2
20260506183403 -17 251 4.8 11.3 0.00 0.00 0.00 1019.3
20260506182900 -17 264 6.4 14.5 0.00 0.00 0.00 1019.4
20260506182357 -17 223 6.4 12.9 0.00 0.00 0.00 1019.3
20260506181854 -17 240 1.6 4.8 0.00 0.00 0.00 1019.2
20260506181352 -17 315 4.8 11.3 0.00 0.00 0.00 1019.4
20260506180849 -17 232 4.8 6.4 0.00 0.00 0.00 1019.5
20260506180345 -17 214 1.6 6.4 0.00 0.00 0.00 1019.3
20260506175842 -17 298 8.0 14.5 0.00 0.00 0.00 1019.5
20260506175339 -17 279 3.2 9.7 0.00 0.00 0.00 1019.4
20260506174836 -17 245 1.6 11.3 0.00 0.00 0.00 1019.5
20260506174333 -17 278 4.8 9.7 0.00 0.00 0.00 1019.8
20260506173831 -17 296 4.8 14.5 0.00 0.00 0.00 1019.8
20260506173327 -17 358 6.4 9.7 0.00 0.00 0.00 1019.7
20260506172824 -17 278 4.8 11.3 0.00 0.00 0.00 1019.8
20260506172321 -17 297 4.8 11.3 0.00 0.00 0.00 1019.9
20260506171818 -17 248 3.2 9.7 0.00 0.00 0.00 1019.9
20260506171315 -17 252 8.0 11.3 0.00 0.00 0.00 1019.8
20260506170813 -17 284 3.2 6.4 0.00 0.00 0.00 1020.0
20260506170309 -17 270 3.2 11.3 0.00 0.00 0.00 1019.8
20260506165808 -17 312 3.2 11.3 0.00 0.00 0.00 1019.9
20260506165306 -17 331 3.2 9.7 0.00 0.00 0.00 1019.8
20260506164802 -17 297 8.0 12.9 0.00 0.00 0.00 1019.8
20260506164258 -17 259 8.0 11.3 0.00 0.00 0.00 1019.7
20260506163755 -17 255 3.2 4.8 0.00 0.00 0.00 1019.5
20260506163250 -17 251 3.2 4.8 0.00 0.00 0.00 1019.7
20260506162746 -17 257 4.8 11.3 0.00 0.00 0.00 1019.7
20260506162244 -17 214 1.6 4.8 0.00 0.00 0.00 1019.7